Flag for Germany Weather past 2 weeks in Alfeld (Leine), Lower Saxony, Germany

Now
57 °F

Sunny.


Feels Like: 56 °F
Forecast: 50 / 63 °F
Wind: 7 mph from West

Location: Braunschweig

Current Time: May 27, 2015 at 8:29:49 PM

Latest Report: May 27, 2015 at 7:50 PM


Visibility: 10 mi

Pressure: 30.12 "Hg

Humidity: 51%

Dew point: 39 °F

Location of Alfeld (Leine)Location

Historic Weather in Alfeld (Leine) — Graph

°F

Alfeld (Leine) temperature yesterday

Maximum temperature yesterday: 57 °F (at 2:20 PM)
Minimum temperature yesterday: 45 °F (at 11:20 PM)
Average temperature yesterday: 53 °F

Past Weeks' High & Low Weather Summary

 TemperatureHumidityPressure
High68 °F (May 18, 4:50 PM)100% (May 15, 6:50 AM)30.33 "Hg (May 15, 6:50 AM)
Low37 °F (May 15, 6:50 AM)30% (May 19, 5:20 PM)29.65 "Hg (May 18, 6:50 PM)
Average57 °F60%30.03 "Hg
* Reported May 12 7:20 PM — May 27 7:20 PM, Alfeld (Leine), Weather by CustomWeather, © 2015

Note: Actual official high and low records may vary slightly from our data, if they occured in-between our weather recording intervals... More about our weather records

Advertising

Alfeld (Leine) weather history for previous 24 hours

 ConditionsComfort  
Time TempWeatherWind HumidityBarometerVisibility
7:20 PM
Wed, May 27
59 °FPassing clouds.8 mph48%30.12 "HgN/A
6:50 PM59 °FPassing clouds.8 mph48%30.15 "HgN/A
6:20 PM57 °FPassing clouds.9 mph48%30.15 "HgN/A
5:50 PM57 °FPassing clouds.9 mph48%30.15 "HgN/A
5:20 PM57 °FOvercast.8 mph51%30.15 "HgN/A
4:50 PM57 °FPassing clouds.7 mph51%30.15 "HgN/A
4:20 PM57 °FBroken clouds.9 mph51%30.15 "HgN/A
3:50 PM61 °FPartly sunny.8 mph45%30.15 "HgN/A
3:20 PM59 °FPartly sunny.12 mph48%30.15 "HgN/A
2:50 PM59 °FPartly sunny.13 mph48%30.18 "HgN/A
2:20 PM55 °FPartly sunny.12 mph55%30.18 "HgN/A
1:50 PM55 °FPartly sunny.10 mph55%30.18 "HgN/A
1:20 PM57 °FPartly sunny.14 mph48%30.18 "HgN/A
12:50 PM59 °FPartly sunny.13 mph51%30.18 "HgN/A
12:20 PM57 °FBroken clouds.9 mph55%30.18 "HgN/A
11:50 AM54 °FPartly sunny.10 mph63%30.18 "HgN/A
11:20 AM55 °FPartly sunny.10 mph59%30.18 "HgN/A
10:50 AM54 °FBroken clouds.12 mph63%30.18 "HgN/A
10:20 AM52 °FCloudy.12 mph77%30.18 "HgN/A
9:50 AM52 °FBroken clouds.8 mph82%30.18 "HgN/A
9:20 AM50 °FBroken clouds.10 mph94%30.18 "HgN/A
8:50 AM50 °FLight rain. Cloudy.10 mph94%30.18 "HgN/A
8:20 AM48 °FBroken clouds.8 mph100%30.18 "HgN/A
7:50 AM48 °FCloudy.8 mph100%30.18 "HgN/A
7:20 AM46 °FDrizzle. Mostly cloudy.6 mph100%30.18 "HgN/A
6:50 AM46 °FDrizzle. Partly sunny.6 mph100%30.18 "HgN/A
11:20 PM
Tue, May 26
45 °FClear.6 mph93%30.15 "Hg10 mi
9:50 PM50 °FSunny.8 mph76%30.12 "Hg10 mi
9:20 PM52 °FSunny.9 mph72%30.12 "Hg10 mi
8:50 PM54 °FSunny.8 mph67%30.09 "Hg10 mi
8:20 PM54 °FSunny.9 mph67%30.09 "Hg10 mi
Weather by CustomWeather, © 2015

See weather overviewHow to use our weather pages